This is the latest recevied weather packets stored in our database for station/object K3FAZ. If no packets are shown the sender has not sent any weather packets the latest 10 day(s).
| Time | Temp. | Humidity | Pressure | Rain* | Wind** | Luminosity | Snow |
|---|---|---|---|---|---|---|---|
| 1777480910 | 15° C | 98% | 1010.5 hPa | 15.49 mm | - | 217 W/m² | - |
| 1777480607 | 15° C | 98% | 1010.6 hPa | 11.94 mm | - | 116 W/m² | - |
| 1777480303 | 15° C | 98% | 1010.6 hPa | 6.1 mm | - | 94 W/m² | - |
| 1777479999 | 14.44° C | 98% | 1010.8 hPa | 9.65 mm | - | 73 W/m² | - |
| 1777479697 | 14.44° C | 97% | 1011 hPa | 6.6 mm | - | 60 W/m² | - |
| 1777479395 | 14.44° C | 98% | 1011.3 hPa | 0 mm | - | 61 W/m² | - |
| 1777479090 | 14.44° C | 97% | 1011.2 hPa | 0 mm | - | 41 W/m² | - |
| 1777478787 | 14.44° C | 98% | 1011.3 hPa | 0 mm | - | 56 W/m² | - |
| 1777478484 | 14.44° C | 98% | 1011.4 hPa | 0 mm | - | 102 W/m² | - |
| 1777478181 | 14.44° C | 98% | 1011.6 hPa | 0 mm | - | 152 W/m² | - |
| 1777477877 | 14.44° C | 98% | 1011.6 hPa | 1.27 mm | - | 265 W/m² | - |
| 1777477572 | 13.89° C | 98% | 1011.6 hPa | 3.05 mm | - | 166 W/m² | - |
| 1777477269 | 13.89° C | 98% | 1011.8 hPa | 3.05 mm | - | 163 W/m² | - |
| 1777476966 | 13.89° C | 98% | 1012.2 hPa | 1.27 mm | - | 129 W/m² | - |
| 1777476664 | 13.89° C | 98% | 1012.1 hPa | 0 mm | - | 147 W/m² | - |
| 1777476360 | 13.33° C | 98% | 1012.1 hPa | 0 mm | - | 178 W/m² | - |
| 1777476056 | 13.33° C | 98% | 1012.1 hPa | 0 mm | - | 152 W/m² | - |
| 1777475751 | 13.33° C | 98% | 1012.2 hPa | 0 mm | - | 209 W/m² | - |
| 1777475449 | 13.33° C | 98% | 1012.3 hPa | 0 mm | - | 157 W/m² | - |
| 1777475143 | 12.78° C | 98% | 1012.2 hPa | 0 mm | - | 204 W/m² | - |
| 1777474841 | 12.78° C | 98% | 1012.1 hPa | 0 mm | - | 154 W/m² | - |
| 1777474536 | 12.78° C | 98% | 1012.2 hPa | 0 mm | - | 135 W/m² | - |
| 1777474233 | 12.78° C | 98% | 1012.1 hPa | 0 mm | - | 115 W/m² | - |
| 1777473931 | 12.22° C | 98% | 1012.2 hPa | 0 mm | - | 102 W/m² | - |
| 1777473628 | 12.22° C | 98% | 1012.1 hPa | 0 mm | - | 86 W/m² | - |
* Rain latest hour (hover to see other rain measurements)
** Current wind speed in m/s (hover to see current wind gust speed)